Weather History for Georgetown, DE

Change the Weather History Date:

Friday, October 28, 2011

  Actual Average Record
Temperature  
Mean Temperature 45 °F 54 °F  
Max Temperature 50 °F 65 °F 84 °F (1984)
Min Temperature 40 °F 43 °F 27 °F (1976)
Degree Days  
Heating Degree Days 20 11  
Month to date heating degree days 163 211  
Since 1 July heating degree days 180 249  
Cooling Degree Days 0 0  
Month to date cooling degree days 20 18  
Year to date cooling degree days 1597 1189  
Moisture  
Dew Point 35 °F    
Average Humidity 65    
Maximum Humidity 83    
Minimum Humidity 46    
Precipitation  
Precipitation 0.05 in 0.11 in 2.06 in (2009)
Month to date precipitation 1.18 3.35  
Year to date precipitation 28.92 36.75  
Sea Level Pressure  
Sea Level Pressure 30.17 in    
Wind  
Wind Speed 8 mph (NNE)    
Max Wind Speed 21 mph    
Max Gust Speed 26 mph    
Visibility 10 miles    
Events Rain    
T = Trace of Precipitation, MM = Missing Value Source: NWS Daily Summary

Daily Weather History Graph

Daily Weather History Graph

Search for Another Location

Airport:

Trip Planner

Search our weather history database for the weather conditions in past years. The results will help you decide how hot, cold, wet, or windy it might be!

Date:

Astronomy

Oct. 28, 2011 Rise Set
Actual Time 7:23 AM EDT 6:06 PM EDT
Civil Twilight 6:56 AM EDT 6:33 PM EDT
Nautical Twilight 6:25 AM EDT 7:04 PM EDT
Astronomical Twilight 5:54 AM EDT 7:35 PM EDT
Moon 9:34 AM EDT (10/28) 7:28 PM EDT (10/28)
Length of Visible Light 11h 37m
Length of Day
10h 42m
Waxing Crescent, 5% of the Moon is Illuminated
Oct 28
Waxing Crescent
Nov 2
First Quarter
Nov 10
Full
Nov 18
Last Quarter
Nov 25
New

Hourly Weather History & Observations

Time (EDT) Temp. Windchill Dew Point Humidity Pressure Visibility Wind Dir Wind Speed Gust Speed Precip Events Conditions
12:54 AM 46.0 °F 41.0 °F 36.0 °F 68% 30.00 in 10.0 mi North 10.4 mph 21.9 mph 0.00 in   Overcast
1:49 AM 46.4 °F 41.5 °F 35.6 °F 66% 30.03 in 10.0 mi North 10.4 mph - N/A   Overcast
1:54 AM 46.0 °F 41.9 °F 35.1 °F 66% 30.04 in 10.0 mi North 8.1 mph 18.4 mph N/A   Overcast
2:54 AM 45.0 °F 40.1 °F 35.1 °F 68% 30.07 in 10.0 mi North 9.2 mph - N/A   Overcast
3:54 AM 45.0 °F 40.1 °F 34.0 °F 65% 30.09 in 10.0 mi North 9.2 mph - N/A   Overcast
4:54 AM 43.0 °F 38.8 °F 34.0 °F 71% 30.11 in 10.0 mi North 6.9 mph - N/A   Overcast
6:54 AM 39.9 °F - 33.1 °F 77% 30.16 in 10.0 mi Calm Calm - N/A   Partly Cloudy
7:54 AM 41.0 °F 39.0 °F 32.0 °F 70% 30.19 in 10.0 mi North 3.5 mph - N/A   Clear
8:54 AM 43.0 °F 36.0 °F 30.0 °F 60% 30.22 in 10.0 mi NNE 13.8 mph 17.3 mph N/A   Clear
9:54 AM 46.0 °F 39.9 °F 30.9 °F 56% 30.22 in 10.0 mi NNE 13.8 mph - N/A   Clear
10:54 AM 46.0 °F 39.3 °F 28.0 °F 50% 30.23 in 10.0 mi NE 16.1 mph 25.3 mph N/A   Clear
11:54 AM 46.9 °F - 28.9 °F 50% 30.24 in 10.0 mi NNE 10.4 mph - N/A   Clear
12:54 PM 48.0 °F - 28.0 °F 46% 30.23 in 10.0 mi NNE 9.2 mph - N/A   Clear
1:54 PM 48.9 °F - 30.9 °F 50% 30.21 in 10.0 mi NE 8.1 mph - N/A   Clear
3:54 PM 48.9 °F - 35.1 °F 59% 30.21 in 10.0 mi ENE 5.8 mph - N/A   Scattered Clouds
4:54 PM 48.9 °F - 35.1 °F 59% 30.21 in 10.0 mi ENE 6.9 mph - N/A   Mostly Cloudy
5:54 PM 48.0 °F - 35.1 °F 61% 30.22 in 10.0 mi NE 5.8 mph - N/A   Scattered Clouds
6:54 PM 48.0 °F - 35.1 °F 61% 30.22 in 10.0 mi NE 4.6 mph - N/A   Overcast
7:54 PM 48.0 °F - 35.1 °F 61% 30.22 in 10.0 mi NNE 5.8 mph - N/A   Mostly Cloudy
9:54 PM 46.9 °F - 37.9 °F 71% 30.21 in 10.0 mi NE 4.6 mph - 0.00 in Rain Light Rain
10:45 PM 46.4 °F 43.5 °F 39.2 °F 76% 30.21 in 9.0 mi NE 5.8 mph - 0.02 in Rain Light Rain
10:54 PM 46.0 °F 42.5 °F 39.0 °F 76% 30.20 in 10.0 mi NE 6.9 mph - 0.02 in Rain Light Rain
11:07 PM 46.4 °F 43.5 °F 39.2 °F 76% 30.20 in 10.0 mi ENE 5.8 mph - 0.01 in Rain Light Rain
11:17 PM 44.6 °F 41.4 °F 39.2 °F 81% 30.20 in 8.0 mi NE 5.8 mph - 0.02 in Rain Light Rain
11:40 PM 44.6 °F 41.4 °F 39.2 °F 81% 30.19 in 10.0 mi NNE 5.8 mph - 0.02 in Rain Light Rain
11:54 PM 45.0 °F 40.1 °F 39.9 °F 82% 30.17 in 10.0 mi NNE 9.2 mph - 0.03 in Rain Light Rain